Location: Drocourt
(49.0571°N, 1.7669°E)
Time: 14:34:21
(UTC+00:00)

Vanguard 3 - Pass Details

Date: 20 April 2024
Orbit: 509 x 3233 km, 33.3° (Epoch: 22 May)

Event Time Altitude Azimuth Distance (km) Brightness Sun altitude
Rises 07:37:04 0° 257° (WSW) 4,924 10.6 26.0°
Reaches altitude 10° 07:42:06 10° 242° (WSW) 3,356 10.0 26.8°
Maximum altitude 07:46:56 17° 204° (SSW) 2,298 9.5 27.5°
Drops below altitude 10° 07:50:34 10° 163° (SSE) 2,397 10.1 28.1°
Sets 07:53:22 0° 142° (SE) 3,044 10.9 28.6°
